STARLINK-36781, 67931

Orbit data source: Space-Track

STARLINK-36781, 67931 is a payload satellite owned by SpaceX/Seattle (US) in LEO that was launched on Sun, 22 Feb 2026 UTC via an FALCON 9 launch vehicle from the Air Force Eastern Test Range (AFETR). Payload-class satellites include a variety of spacecraft equipped with specific instruments for various scientific and technological missions. These include communications satellites like Starlink; space stations such as the ISS; scientific satellites like the Hubble; Earth observation satellites from companies like Planet Labs, Umbra, and HawkEye 360; GPS; miniature CubeSats for education and research; and military/defense satellites.

Loading next visibility...
Identifier
67931, 2026-036AD
Orbit
LEO
Country
Flag of USUS
Related business
Manufacturer
SpaceX/Seattle
Mission
Operational Commercial Communications
Bus & Motor
STARLINK V2MO, Unknown motor
Mass
575 kg wet, ~530 kg dry
Launch date (UTC)
2026-02-22 (4 months ago)
Launch vehicle
FALCON 9
Launch site
Air Force Eastern Test Range (AFETR)
Object type
Payload
Rocket body
Debris
Shape & HBR
Box + 2 Pan, 17.7 m
Radar Cross Section
36.964 m², Large (>1 m²)

Expand to show TLE details & history
Last TLE update: 2 days ago

TLE from 2 days ago
0 STARLINK-36781
1 67931U 26036AD  26170.03052890  .00015509  00000-0  57142-3 0  9998
2 67931  43.0016  32.6921 0001909 275.7049  84.3585 15.27607887 19226
Epoch: 2026-06-19T00:43Z
TLE epoch observation values (Epoch: 2026-06-19T00:43:57.696Z)
Latitude
-0.00004°
Longitude
114.4363°
Altitude
482.613 km
Speed
7.626 km/s
True Right ascension
02h 10m 46s
True Declination
0° 00' 00"
Sunlit
Object was in daylight at epoch
Visualization orbit readout
Latitude
Unknown
Longitude
Unknown
Altitude
Unknown
Speed
Unknown
Apparent Right ascension
Unknown
Apparent Declination
Unknown
Sunlit
N/A
Visualization observer readout
Local Sidereal Time
07:20:42
Azimuth
Unknown
Elevation
Unknown
Doppler factor
Unknown
Orbital elements
Apogee altitude
486.221 km
Perigee altitude
483.6 km
Semi-major axis
6,863.048 km
Eccentricity
0.00019
Inclination
43.0016°
RAAN
32.6921°
Arg. of periapsis
275.7049°
True anomaly
84.38027°
Mean anomaly
84.3585°
Eccentric anomaly
84.36938°
Mean motion
3.8174 °/min
Orbital period
94.31 mins
BSTAR
0.00057142
Loading maneuver chart data...
Computing Atmospheric mass density...
Loading historical data...
Loading historical data...
Loading historical data...
Loading historical data...
Loading historical data...
Loading historical data...
Loading historical data...

Documentation

Showing up to 5 results
|